Hourly Weather Rudzica

Today, 10 April, Saturday

Time Temperature Precipitation Wind Pressure Humidity
00:00 +4°C° 0 mm 2 mps 736 mmHg 79%
01:00 +4°C° 0 mm 2 mps 736 mmHg 79%
02:00 +4°C° 0 mm 2 mps 736 mmHg 78%
03:00 +4°C° 0 mm 2 mps 736 mmHg 78%
04:00 +4°C° 0 mm 2 mps 735 mmHg 77%
05:00 +5°C° 0 mm 2 mps 735 mmHg 75%
06:00 +6°C° 0 mm 2 mps 735 mmHg 74%
07:00 +6°C° 0 mm 2 mps 735 mmHg 73%
08:00 +7°C° 0.2 mm 3 mps 736 mmHg 75%
09:00 +7°C° 0.2 mm 3 mps 736 mmHg 78%
10:00 +7°C° 0.2 mm 3 mps 736 mmHg 80%
11:00 +7°C° 0 mm 2 mps 736 mmHg 82%
12:00 +7°C° 0 mm 2 mps 737 mmHg 83%
13:00 +7°C° 0 mm 2 mps 737 mmHg 85%
14:00 +8°C° 0 mm 1 mps 737 mmHg 87%
15:00 +8°C° 0 mm 1 mps 738 mmHg 89%
16:00 +7°C° 0 mm 0 mps 738 mmHg 91%
17:00 +8°C° 0 mm 1 mps 738 mmHg 92%
18:00 +7°C° 0 mm 1 mps 738 mmHg 93%
19:00 +7°C° 0 mm 1 mps 738 mmHg 94%
20:00 +7°C° 0 mm 1 mps 738 mmHg 94%
21:00 +7°C° 0 mm 1 mps 738 mmHg 94%
22:00 +6°C° 0 mm 2 mps 738 mmHg 94%
23:00 +6°C° 0 mm 2 mps 738 mmHg 93%

Tomorrow, 11 April, Sunday

Time Temperature Precipitation Wind Pressure Humidity
00:00 +6°C° 0 mm 2 mps 737 mmHg 92%
01:00 +6°C° 0 mm 2 mps 737 mmHg 92%
02:00 +6°C° 0 mm 2 mps 737 mmHg 90%
03:00 +6°C° 0 mm 2 mps 736 mmHg 89%
04:00 +6°C° 0 mm 2 mps 736 mmHg 88%
05:00 +5°C° 0 mm 3 mps 736 mmHg 84%
06:00 +7°C° 0 mm 3 mps 736 mmHg 80%
07:00 +7°C° 0 mm 4 mps 736 mmHg 76%
08:00 +8°C° 0 mm 4 mps 736 mmHg 71%
09:00 +10°C° 0 mm 4 mps 736 mmHg 67%
10:00 +12°C° 0 mm 4 mps 736 mmHg 62%
11:00 +13°C° 0 mm 4 mps 736 mmHg 59%
12:00 +13°C° 0 mm 4 mps 736 mmHg 57%
13:00 +14°C° 0 mm 4 mps 736 mmHg 55%
14:00 +14°C° 0 mm 4 mps 735 mmHg 56%
15:00 +14°C° 0 mm 4 mps 735 mmHg 58%
16:00 +13°C° 0 mm 4 mps 735 mmHg 60%
17:00 +12°C° 0 mm 3 mps 735 mmHg 67%
18:00 +10°C° 0 mm 3 mps 735 mmHg 74%
19:00 +9°C° 0 mm 2 mps 735 mmHg 80%
20:00 +8°C° 0 mm 2 mps 735 mmHg 81%
21:00 +8°C° 0 mm 2 mps 735 mmHg 83%
22:00 +8°C° 0 mm 2 mps 735 mmHg 84%
23:00 +8°C° 0 mm 2 mps 735 mmHg 85%

Day after tomorrow, 12 April, Monday

Time Temperature Precipitation Wind Pressure Humidity
00:00 +8°C° 0 mm 2 mps 735 mmHg 86%
01:00 +7°C° 0 mm 2 mps 735 mmHg 87%
02:00 +7°C° 0 mm 2 mps 735 mmHg 88%
03:00 +7°C° 0 mm 2 mps 735 mmHg 89%
04:00 +6°C° 0 mm 2 mps 735 mmHg 90%
05:00 +7°C° 0 mm 2 mps 735 mmHg 89%
06:00 +7°C° 0 mm 2 mps 736 mmHg 88%
07:00 +8°C° 0 mm 2 mps 736 mmHg 88%
08:00 +8°C° 0 mm 3 mps 737 mmHg 88%
09:00 +7°C° 0 mm 4 mps 737 mmHg 88%
10:00 +6°C° 0 mm 4 mps 738 mmHg 89%
11:00 +5°C° 0 mm 4 mps 738 mmHg 89%
12:00 +5°C° 0 mm 4 mps 739 mmHg 90%
13:00 +4°C° 0 mm 4 mps 739 mmHg 91%
14:00 +3°C° 0.1 mm 4 mps 739 mmHg 93%
15:00 +1°C° 0.1 mm 4 mps 740 mmHg 94%
16:00 +1°C° 0.1 mm 4 mps 740 mmHg 96%
17:00 +1°C° 1.5 mm 3 mps 740 mmHg 97%
18:00 +1°C° 1.5 mm 3 mps 741 mmHg 98%
19:00 +1°C° 1.5 mm 3 mps 741 mmHg 98%
20:00 +1°C° 1.9 mm 3 mps 741 mmHg 98%
21:00 +1°C° 1.9 mm 3 mps 742 mmHg 98%
22:00 0°C° 1.9 mm 3 mps 742 mmHg 98%
23:00 -1°C° 0.9 mm 4 mps 742 mmHg 97%

13 April, Tuesday

Time Temperature Precipitation Wind Pressure Humidity
00:00 -1°C° 0.9 mm 4 mps 743 mmHg 96%
01:00 -1°C° 0.9 mm 4 mps 743 mmHg 95%
02:00 0°C° 0.3 mm 3 mps 743 mmHg 94%
03:00 0°C° 0.3 mm 3 mps 743 mmHg 93%
04:00 +1°C° 0.3 mm 2 mps 743 mmHg 91%
05:00 +1°C° 0 mm 2 mps 744 mmHg 91%
06:00 0°C° 0 mm 3 mps 744 mmHg 91%
07:00 0°C° 0 mm 3 mps 744 mmHg 90%
08:00 +1°C° 0 mm 3 mps 744 mmHg 87%
09:00 0°C° 0 mm 4 mps 744 mmHg 83%
10:00 +1°C° 0 mm 4 mps 744 mmHg 79%
11:00 +3°C° 0 mm 4 mps 744 mmHg 74%
12:00 +4°C° 0 mm 4 mps 744 mmHg 68%
13:00 +5°C° 0 mm 4 mps 744 mmHg 62%
14:00 +4°C° 0 mm 4 mps 744 mmHg 62%
15:00 +4°C° 0 mm 4 mps 744 mmHg 62%
16:00 +4°C° 0 mm 3 mps 743 mmHg 62%
17:00 +3°C° 0 mm 3 mps 744 mmHg 65%
18:00 +4°C° 0 mm 2 mps 744 mmHg 68%
19:00 +3°C° 0 mm 2 mps 744 mmHg 71%
20:00 +3°C° 0 mm 2 mps 744 mmHg 73%
21:00 +2°C° 0 mm 2 mps 744 mmHg 76%
22:00 +2°C° 0 mm 2 mps 744 mmHg 78%
23:00 +1°C° 0 mm 2 mps 744 mmHg 80%

14 April, Wednesday

Time Temperature Precipitation Wind Pressure Humidity
00:00 +1°C° 0 mm 2 mps 744 mmHg 82%
01:00 0°C° 0 mm 3 mps 744 mmHg 84%
02:00 0°C° 0 mm 3 mps 744 mmHg 86%
03:00 -1°C° 0 mm 3 mps 744 mmHg 88%
04:00 -1°C° 0 mm 3 mps 744 mmHg 89%
05:00 -1°C° 0 mm 3 mps 744 mmHg 88%
06:00 0°C° 0 mm 3 mps 744 mmHg 87%
07:00 -1°C° 0 mm 4 mps 744 mmHg 86%
08:00 0°C° 0 mm 4 mps 744 mmHg 81%
09:00 +1°C° 0 mm 4 mps 744 mmHg 76%
10:00 +2°C° 0 mm 5 mps 744 mmHg 71%
11:00 +2°C° 0.1 mm 5 mps 744 mmHg 66%
12:00 +3°C° 0.1 mm 5 mps 744 mmHg 61%
13:00 +5°C° 0.1 mm 5 mps 744 mmHg 57%
14:00 +5°C° 0.1 mm 5 mps 743 mmHg 57%
15:00 +5°C° 0.1 mm 5 mps 743 mmHg 57%
16:00 +5°C° 0.1 mm 5 mps 743 mmHg 57%
17:00 +4°C° 0 mm 4 mps 743 mmHg 62%
18:00 +3°C° 0 mm 3 mps 743 mmHg 67%
19:00 +2°C° 0 mm 3 mps 743 mmHg 72%
20:00 +2°C° 0 mm 3 mps 743 mmHg 76%
21:00 +2°C° 0 mm 2 mps 743 mmHg 80%
22:00 +1°C° 0 mm 2 mps 743 mmHg 84%
23:00 +1°C° 0 mm 2 mps 743 mmHg 86%

15 April, Thursday

Time Temperature Precipitation Wind Pressure Humidity
00:00 -1°C° 0 mm 2 mps 743 mmHg 88%
01:00 -2°C° 0 mm 2 mps 743 mmHg 90%
02:00 -2°C° 0 mm 2 mps 744 mmHg 91%
03:00 -2°C° 0 mm 2 mps 744 mmHg 92%
04:00 -2°C° 0 mm 3 mps 744 mmHg 94%
05:00 -2°C° 0 mm 3 mps 744 mmHg 91%
06:00 -1°C° 0 mm 3 mps 744 mmHg 89%
07:00 -2°C° 0 mm 4 mps 744 mmHg 87%
08:00 0°C° 0 mm 4 mps 744 mmHg 80%
09:00 +1°C° 0 mm 4 mps 744 mmHg 74%
10:00 +3°C° 0 mm 4 mps 744 mmHg 67%
11:00 +4°C° 0.1 mm 4 mps 744 mmHg 64%
12:00 +5°C° 0.1 mm 4 mps 744 mmHg 61%
13:00 +5°C° 0.1 mm 5 mps 744 mmHg 58%
14:00 +5°C° 0.1 mm 5 mps 744 mmHg 57%
15:00 +6°C° 0.1 mm 5 mps 744 mmHg 57%
16:00 +6°C° 0.1 mm 5 mps 744 mmHg 57%
17:00 +5°C° 0 mm 4 mps 744 mmHg 61%
18:00 +4°C° 0 mm 4 mps 744 mmHg 65%
19:00 +3°C° 0 mm 3 mps 744 mmHg 69%
20:00 +2°C° 0 mm 3 mps 744 mmHg 73%
21:00 +2°C° 0 mm 2 mps 744 mmHg 76%
22:00 +1°C° 0 mm 2 mps 745 mmHg 80%
23:00 +1°C° 0 mm 2 mps 745 mmHg 84%
Show more